This is the latest recevied weather packets stored in our database for station/object W5ALL-WX. If no packets are shown the sender has not sent any weather packets the latest 10 day(s).
| Time | Temp. | Humidity | Pressure | Rain* | Wind** | Luminosity | Snow |
|---|---|---|---|---|---|---|---|
| 1778080628 | 18.33° C | 31% | 1015.3 hPa | 0 mm | - | - | - |
| 1778080329 | 18.33° C | 32% | 1015.2 hPa | 0 mm | - | - | - |
| 1778080028 | 17.78° C | 33% | 1015.2 hPa | 0 mm | - | - | - |
| 1778079728 | 18.33° C | 33% | 1015.2 hPa | 0 mm | - | - | - |
| 1778079428 | 18.33° C | 34% | 1015.2 hPa | 0 mm | - | - | - |
| 1778079128 | 18.33° C | 33% | 1015.2 hPa | 0 mm | - | - | - |
| 1778078829 | 17.78° C | 34% | 1015.2 hPa | 0 mm | - | - | - |
| 1778078528 | 17.78° C | 34% | 1015.3 hPa | 0 mm | - | - | - |
| 1778078228 | 17.78° C | 35% | 1015.3 hPa | 0 mm | - | - | - |
| 1778077928 | 17.78° C | 35% | 1015.3 hPa | 0 mm | - | - | - |
| 1778077629 | 17.78° C | 36% | 1015.3 hPa | 0 mm | - | - | - |
| 1778077328 | 17.22° C | 37% | 1015.3 hPa | 0 mm | - | - | - |
| 1778077028 | 17.22° C | 36% | 1015.3 hPa | 0 mm | - | - | - |
| 1778076728 | 17.22° C | 37% | 1015.3 hPa | 0 mm | - | - | - |
| 1778076429 | 17.22° C | 37% | 1015.3 hPa | 0 mm | - | - | - |
| 1778076128 | 17.22° C | 38% | 1015.3 hPa | 0 mm | - | - | - |
| 1778075828 | 17.22° C | 37% | 1015.3 hPa | 0 mm | - | - | - |
| 1778075528 | 16.67° C | 39% | 1015.3 hPa | 0 mm | - | - | - |
| 1778075228 | 16.67° C | 38% | 1015.2 hPa | 0 mm | - | - | - |
| 1778074928 | 16.67° C | 38% | 1015.2 hPa | 0 mm | - | - | - |
| 1778074628 | 16.11° C | 39% | 1015 hPa | 0 mm | - | - | - |
| 1778074328 | 16.11° C | 40% | 1015.2 hPa | 0 mm | - | - | - |
| 1778074028 | 15.56° C | 41% | 1015.2 hPa | 0 mm | - | - | - |
| 1778073728 | 15° C | 42% | 1015 hPa | 0 mm | - | - | - |
| 1778073428 | 15° C | 44% | 1014.9 hPa | 0 mm | - | - | - |
* Rain latest hour (hover to see other rain measurements)
** Current wind speed in m/s (hover to see current wind gust speed)